FW2654 Weather Reports


Display with metric or nautical units.
time (UTC)temp
F
wind
direction
speed
MPH
gust
MPH
rain 1hr
in
rain 24hr
in
rain mn
in
humidity
%
barometer
mb
20260507093338 37 0 0.0 0.0 0.00 0.00 0.00 94 1014.1
20260507093052 37 0 0.0 0.0 0.00 0.00 0.00 93 1014.0
20260507092326 37 0 0.0 0.0 0.00 0.00 0.00 93 1014.0
20260507091820 37 0 0.0 0.0 0.00 0.00 0.00 93 1014.0
20260507091314 37 0 0.0 0.0 0.00 0.00 0.00 93 1013.9
20260507091256 37 0 0.0 0.0 0.00 0.00 0.00 93 1013.9
20260507090308 38 0 0.0 0.0 0.00 0.00 0.00 93 1013.9
20260507085808 38 0 0.0 0.0 0.00 0.00 0.00 93 1013.9
20260507085307 38 0 0.0 0.0 0.00 0.00 0.00 93 1013.8
20260507085257 38 0 0.0 0.0 0.00 0.00 0.00 93 1013.8
20260507084745 38 0 0.0 0.0 0.00 0.00 0.00 93 1013.8
20260507083808 38 0 0.0 0.0 0.00 0.00 0.00 93 1013.8
20260507083304 38 268 0.0 0.0 0.00 0.00 0.00 93 1013.8
20260507082803 38 268 0.0 0.0 0.00 0.01 0.00 93 1013.7
20260507082522 38 268 0.0 0.0 0.00 0.01 0.00 93 1013.7
20260507081802 39 268 0.0 0.0 0.00 0.01 0.00 93 1013.6
20260507081302 39 267 0.0 0.0 0.00 0.01 0.00 93 1013.6
20260507080800 39 0 0.0 0.0 0.00 0.01 0.00 93 1013.6
20260507075756 39 0 0.0 0.0 0.00 0.02 0.00 93 1013.6
20260507075255 39 0 0.0 0.0 0.00 0.02 0.00 93 1013.7
20260507074754 39 0 0.0 0.0 0.00 0.02 0.00 93 1013.7
20260507074515 39 266 0.0 0.0 0.00 0.03 0.00 93 1013.6
20260507073755 39 267 0.0 0.0 0.00 0.04 0.00 93 1013.7
20260507073256 40 0 0.0 0.0 0.00 0.05 0.00 92 1013.7
20260507072754 40 267 0.0 0.0 0.00 0.05 0.00 93 1013.6
20260507072252 40 268 0.0 0.0 0.00 0.05 0.00 93 1013.6
20260507071748 40 268 0.0 0.0 0.00 0.06 0.00 93 1013.6
20260507071250 40 268 0.0 0.0 0.00 0.07 0.00 93 1013.7
20260507070748 40 268 0.0 0.0 0.00 0.08 0.00 93 1013.6
20260507070247 40 268 0.0 0.0 0.00 0.09 0.00 92 1013.6
20260507065748 40 268 0.0 0.0 0.00 0.09 0.00 92 1013.6
20260507065247 40 268 0.0 0.0 0.00 0.09 0.00 92 1013.6
20260507064747 40 268 0.0 0.0 0.00 0.10 0.00 92 1013.7
20260507064246 41 267 0.0 0.0 0.00 0.10 0.00 92 1013.8
20260507063744 41 267 0.0 0.0 0.00 0.10 0.00 92 1013.8
20260507063246 41 0 0.0 0.0 0.00 0.10 0.00 92 1013.8
20260507063008 41 267 0.0 0.0 0.00 0.11 0.00 92 1013.8
20260507062245 41 0 0.0 0.0 0.00 0.11 0.00 92 1013.8
20260507061746 41 0 0.0 0.0 0.00 0.12 0.00 92 1013.8
20260507061246 41 0 0.0 0.0 0.00 0.13 0.00 92 1013.8
20260507061008 41 0 0.0 0.0 0.00 0.14 0.00 92 1013.8
20260507060246 42 0 0.0 0.0 0.00 0.15 0.00 92 1013.8
20260507060019 42 0 0.0 0.0 0.00 0.16 0.00 92 1013.8
20260507055246 42 0 0.0 0.0 0.00 0.16 0.00 92 1013.8
20260507054745 42 0 0.0 0.0 0.00 0.17 0.00 92 1013.8
20260507054245 42 265 0.0 0.0 0.00 0.19 0.00 92 1013.9
20260507053746 42 0 0.0 0.0 0.00 0.19 0.00 92 1014.0
20260507053245 42 265 0.0 0.0 0.00 0.20 0.00 92 1013.9
20260507052744 42 259 0.0 0.0 0.00 0.21 0.00 91 1013.8
20260507052244 42 266 0.0 0.0 0.00 0.23 0.00 91 1013.8
20260507051744 42 0 0.0 0.0 0.00 0.26 0.00 91 1013.8
20260507051245 42 0 0.0 0.0 0.00 0.30 0.00 91 1014.0
20260507050745 42 0 0.0 0.0 0.00 0.31 0.00 91 1014.0
20260507050245 43 0 0.0 0.0 0.00 0.32 0.00 91 1014.0
20260507045745 43 0 0.0 0.0 0.00 0.33 0.00 91 1014.0
20260507045246 43 0 0.0 0.0 0.00 0.33 0.00 90 1014.1
20260507044745 43 0 0.0 0.0 0.00 0.34 0.00 90 1014.1
20260507044243 43 0 0.0 0.0 0.00 0.34 0.00 90 1014.0
20260507043741 43 0 0.0 0.0 0.00 0.35 0.00 90 1014.0
20260507043242 44 0 0.0 0.0 0.00 0.37 0.00 90 1013.9
20260507042742 44 0 0.0 0.0 0.00 0.40 0.00 90 1013.9
20260507042239 44 0 0.0 0.0 0.00 0.42 0.00 90 1013.9
20260507041737 44 0 0.0 0.0 0.00 0.45 0.00 89 1014.0
20260507041237 44 0 0.0 0.0 0.00 0.46 0.00 89 1014.0
20260507040730 44 0 0.0 0.0 0.00 0.48 0.00 89 1014.0
20260507040223 44 0 0.0 0.0 0.00 0.49 0.00 88 1013.8
20260507035721 44 0 0.0 0.0 0.00 0.50 0.50 88 1013.8
20260507035221 44 0 0.0 0.0 0.00 0.50 0.50 88 1013.8
20260507034940 45 0 0.0 0.0 0.00 0.50 0.50 88 1013.9
20260507034220 45 0 0.0 0.0 0.00 0.50 0.50 88 1013.9
20260507033715 45 0 0.0 0.0 0.00 0.50 0.50 88 1013.9
20260507033213 45 0 0.0 0.0 0.00 0.50 0.50 87 1013.9
20260507032712 45 0 0.0 0.0 0.00 0.50 0.50 87 1013.9
20260507032208 46 261 0.0 0.0 0.00 0.50 0.50 87 1014.0
20260507031708 46 260 0.0 0.0 0.00 0.50 0.50 86 1014.0
20260507031209 46 0 0.0 0.0 0.00 0.50 0.50 86 1014.0
20260507030708 46 0 0.0 0.0 0.00 0.50 0.50 86 1014.0
20260507030204 46 0 0.0 0.0 0.00 0.50 0.50 85 1014.1
20260507025703 46 0 0.0 0.0 0.00 0.50 0.50 85 1014.1
20260507025201 47 0 0.0 0.0 0.00 0.50 0.50 85 1014.0
20260507024658 47 0 0.0 0.0 0.00 0.51 0.50 85 1014.0
20260507024157 47 263 0.0 0.0 0.00 0.52 0.50 85 1014.0
20260507023656 47 0 0.0 0.0 0.00 0.52 0.50 84 1014.0
20260507023157 47 0 0.0 0.0 0.00 0.53 0.50 84 1014.0
20260507022657 48 0 0.0 0.0 0.00 0.53 0.50 83 1013.9
20260507022200 48 0 0.0 0.0 0.00 0.54 0.50 83 1013.9
20260507021655 48 0 0.0 0.0 0.00 0.54 0.50 82 1014.0
20260507021148 48 0 0.0 0.0 0.00 0.55 0.50 82 1013.8
20260507020643 49 0 0.0 0.0 0.00 0.57 0.50 81 1013.8
20260507020137 49 0 0.0 0.0 0.00 0.58 0.50 80 1013.8
20260507015631 49 0 0.0 0.0 0.00 0.59 0.50 80 1013.8
20260507015125 49 0 0.0 0.0 0.00 0.60 0.50 79 1013.7
20260507014619 50 0 0.0 0.0 0.00 0.60 0.50 78 1013.6
20260507014113 50 269 0.0 0.0 0.00 0.61 0.50 78 1013.5
20260507013607 50 269 0.0 0.0 0.00 0.61 0.50 77 1013.4
20260507013100 51 269 0.0 0.0 0.00 0.61 0.50 77 1013.4
20260507012555 51 269 0.0 0.0 0.00 0.62 0.50 76 1013.4
20260507012049 51 269 0.0 0.0 0.00 0.63 0.50 75 1013.1
20260507011543 52 205 0.0 0.0 0.00 0.64 0.50 74 1013.2
20260507011520 52 0 0.0 0.0 0.00 0.66 0.50 74 1013.3
20260507010751 52 269 0.0 0.0 0.00 0.68 0.50 73 1013.4
20260507010025 53 269 0.0 0.0 0.00 0.69 0.50 72 1013.3
20260507005519 53 269 0.0 0.0 0.00 0.70 0.50 72 1013.2
20260507005013 53 269 0.0 0.0 0.00 0.70 0.50 70 1013.2
20260507004507 54 268 0.0 0.0 0.00 0.71 0.50 69 1013.2
20260507004001 54 269 0.0 0.0 0.00 0.71 0.50 68 1013.2
20260507003455 54 267 0.0 0.0 0.00 0.71 0.50 67 1013.1
20260507002948 55 268 0.0 0.0 0.00 0.72 0.50 66 1013.1
20260507002443 55 268 0.0 0.0 0.00 0.72 0.50 66 1013.0
20260507001936 56 268 0.0 0.0 0.00 0.72 0.50 64 1013.1
20260507001431 56 267 0.0 0.0 0.00 0.73 0.50 63 1012.9
20260507000925 56 267 0.0 0.0 0.00 0.73 0.50 64 1012.9
20260507000637 56 267 0.0 0.0 0.00 0.73 0.50 62 1012.9
20260506235914 57 267 0.0 0.0 0.00 0.73 0.50 61 1012.7
20260506235406 57 267 0.0 0.0 0.00 0.73 0.50 62 1012.6
20260506234900 57 267 0.0 0.0 0.00 0.73 0.50 59 1012.6
20260506234838 57 198 0.0 0.0 0.00 0.73 0.50 60 1012.6
20260506233848 57 198 0.0 0.0 0.00 0.73 0.50 60 1012.6
20260506233343 57 198 0.0 0.0 0.00 0.73 0.50 60 1012.5
20260506232837 57 198 0.0 0.0 0.00 0.73 0.50 59 1012.6
20260506232330 58 198 0.0 0.0 0.00 0.73 0.50 58 1012.4
20260506231824 58 194 0.0 0.0 0.00 0.73 0.50 58 1012.3
20260506231541 58 281 0.0 0.0 0.00 0.73 0.50 58 1012.3
20260506231036 58 256 0.0 0.0 0.00 0.73 0.50 58 1012.4
20260506230307 58 255 0.0 0.0 0.00 0.73 0.50 57 1012.4
20260506225801 58 249 0.0 0.0 0.00 0.73 0.50 57 1012.6
20260506225514 58 246 0.0 0.0 0.00 0.73 0.50 58 1012.5
20260506224749 58 223 0.0 0.0 0.00 0.73 0.50 57 1012.5
20260506224500 58 214 0.0 0.0 0.00 0.73 0.50 54 1012.5
20260506223959 58 244 0.0 0.0 0.00 0.73 0.50 54 1012.6
20260506223448 58 244 0.0 0.0 0.00 0.74 0.50 56 1012.7
20260506222724 59 219 0.0 0.0 0.00 0.74 0.50 52 1012.7
20260506222441 59 223 0.0 0.0 0.00 0.74 0.50 55 1012.7
20260506221712 59 246 0.0 0.0 0.00 0.74 0.50 56 1012.8
20260506221206 59 244 0.0 0.0 0.00 0.74 0.50 58 1012.8
20260506220701 59 255 0.0 0.0 0.00 0.74 0.50 57 1012.9
20260506220154 59 277 0.0 0.0 0.00 0.74 0.50 55 1012.8
20260506215914 59 220 0.0 0.0 0.00 0.74 0.50 56 1012.8
20260506215151 59 215 0.0 0.0 0.00 0.74 0.50 56 1012.9
20260506214915 59 211 0.0 0.0 0.00 0.74 0.50 58 1012.8
20260506214148 59 198 0.0 0.0 0.00 0.74 0.50 57 1012.7
20260506213646 59 265 0.0 0.0 0.00 0.75 0.50 55 1012.8
20260506213146 59 265 0.0 0.0 0.00 0.75 0.50 57 1012.7
20260506212904 60 245 0.0 0.0 0.00 0.75 0.50 56 1012.6
20260506212143 60 150 0.0 0.0 0.00 0.76 0.50 60 1012.6
20260506211641 60 221 0.0 0.0 0.00 0.76 0.50 56 1012.3
20260506211615 60 271 0.0 0.0 0.00 0.76 0.50 56 1012.3
20260506210640 60 311 0.0 0.0 0.00 0.76 0.50 55 1012.3
20260506210401 60 119 0.0 0.0 0.00 0.77 0.50 59 1012.2
20260506205643 60 90 0.0 0.0 0.00 0.78 0.50 59 1012.3
20260506205139 60 281 0.0 0.0 0.00 0.78 0.50 55 1012.3
20260506204641 60 246 0.0 0.0 0.00 0.78 0.50 56 1012.3
20260506204141 60 103 0.0 0.0 0.00 0.79 0.50 58 1012.3
20260506203637 60 228 0.0 0.0 0.00 0.79 0.50 55 1012.4
20260506203139 59 181 0.0 0.0 0.00 0.80 0.50 58 1012.4
20260506202639 59 279 0.0 0.0 0.00 0.80 0.50 56 1012.4
20260506202139 59 281 0.0 0.0 0.00 0.81 0.50 53 1012.4
20260506201636 59 301 0.0 0.0 0.00 0.81 0.50 57 1012.3
20260506201137 60 213 0.0 0.0 0.00 0.82 0.50 54 1012.4
20260506200637 60 213 0.0 0.0 0.00 0.83 0.50 55 1012.3
20260506200134 60 275 0.0 0.0 0.00 0.86 0.50 55 1012.4
20260506195633 60 95 0.0 0.0 0.00 0.92 0.50 52 1012.4
20260506195135 60 232 0.0 0.0 0.00 0.96 0.50 55 1012.3
20260506194851 60 241 0.0 0.0 0.00 0.96 0.50 51 1012.3
20260506194355 61 259 0.0 0.0 0.00 0.96 0.50 55 1012.3
20260506193631 61 249 0.0 0.0 0.00 0.96 0.50 51 1012.2
20260506193130 61 9 0.0 0.0 0.00 0.96 0.50 52 1012.1
20260506192632 62 177 0.0 0.0 0.00 0.96 0.50 52 1012.1
20260506192130 62 258 0.0 0.0 0.00 0.96 0.50 49 1012.1
20260506191629 62 302 0.0 0.0 0.00 0.96 0.50 51 1012.1
20260506191135 62 306 0.0 0.0 0.00 0.96 0.50 53 1012.1
20260506190634 62 277 0.0 0.0 0.00 0.96 0.50 60 1011.8
20260506190133 62 315 0.0 0.0 0.00 0.96 0.50 57 1011.8
20260506185900 62 150 0.0 0.0 0.00 0.96 0.50 50 1011.9
20260506185131 62 311 0.0 0.0 0.00 0.96 0.50 56 1011.8
20260506184631 62 281 0.0 0.0 0.00 0.96 0.50 50 1011.7
20260506184130 62 246 0.0 0.0 0.00 0.96 0.50 52 1011.7
20260506183626 62 282 0.0 0.0 0.00 0.96 0.50 54 1011.7
20260506183126 62 333 0.0 0.0 0.00 0.96 0.50 55 1011.7
20260506182627 62 296 0.0 0.0 0.00 0.96 0.50 60 1011.7
20260506182126 62 124 0.0 0.0 0.00 0.96 0.50 54 1011.8
20260506181626 62 215 0.0 0.0 0.00 0.96 0.50 56 1011.8
20260506181353 62 0 0.0 0.0 0.00 0.96 0.50 62 1012.1
20260506180849 61 231 0.0 0.0 0.00 0.96 0.50 55 1011.9
20260506180125 62 200 0.0 0.0 0.00 0.96 0.50 54 1012.1
20260506175625 62 314 0.0 0.0 0.00 0.96 0.50 61 1012.1
20260506175127 61 286 0.0 0.0 0.00 0.96 0.50 59 1012.1
20260506174626 61 295 0.0 0.0 0.00 0.96 0.50 62 1012.3
20260506174604 61 279 0.0 0.0 0.00 0.96 0.50 56 1012.4
20260506173626 61 346 0.0 0.0 0.00 0.96 0.50 60 1012.3
20260506173125 61 267 0.0 0.0 0.00 0.96 0.50 61 1012.3
20260506172624 61 217 0.0 0.0 0.00 0.96 0.50 61 1012.4
20260506172118 61 272 0.0 0.0 0.00 0.96 0.50 64 1012.3
20260506171612 60 207 0.0 0.0 0.00 0.96 0.50 64 1012.3
20260506171106 60 286 0.0 0.0 0.00 0.96 0.50 61 1012.4
20260506170602 60 115 0.0 0.0 0.00 0.96 0.50 56 1012.5
20260506165601 59 332 0.0 0.0 0.00 0.96 0.50 62 1012.5
20260506165330 60 302 0.0 0.0 0.00 0.96 0.50 62 1012.5
20260506164600 60 298 0.0 0.0 0.00 0.96 0.50 62 1012.5
20260506164327 60 211 0.0 0.0 0.00 0.96 0.50 62 1012.5
20260506163818 59 225 0.0 0.0 0.00 0.96 0.50 65 1012.5
20260506163057 59 261 0.0 0.0 0.00 0.96 0.50 64 1012.5
20260506162555 59 338 0.0 0.0 0.00 0.96 0.50 60 1012.6
20260506162055 59 79 0.0 0.0 0.00 0.96 0.50 63 1012.4
20260506161554 58 196 0.0 0.0 0.00 0.96 0.50 66 1012.4
20260506161054 58 139 0.0 0.0 0.00 0.96 0.50 64 1012.3
20260506160553 58 313 0.0 0.0 0.00 0.96 0.50 64 1012.3
20260506160053 58 314 0.0 0.0 0.00 0.96 0.50 67 1012.2
20260506155549 58 279 0.0 0.0 0.00 0.96 0.50 66 1012.2
20260506155050 57 207 0.0 0.0 0.00 0.96 0.50 67 1012.1
20260506154811 57 340 0.0 0.0 0.00 0.96 0.50 67 1012.2
20260506154053 57 259 0.0 0.0 0.00 0.96 0.50 69 1012.5
20260506153548 57 177 0.0 0.0 0.00 0.96 0.50 66 1012.6
20260506153042 56 167 0.0 0.0 0.00 0.96 0.50 73 1012.6
20260506152536 56 221 0.0 0.0 0.00 0.96 0.50 71 1012.5
20260506152235 55 255 0.0 0.0 0.00 0.96 0.50 67 1012.3
20260506152117 55 112 0.0 0.0 0.00 0.96 0.50 72 1012.4
20260506151018 55 140 0.0 0.0 0.00 0.96 0.50 72 1012.1
20260506150729 55 210 0.0 0.0 0.00 0.96 0.50 74 1011.8
20260506150005 54 131 0.0 0.0 0.00 0.96 0.50 76 1011.6
20260506145500 54 330 0.0 0.0 0.00 0.96 0.50 78 1011.6
20260506145218 53 275 0.0 0.0 0.00 0.96 0.50 79 1011.5
20260506144447 52 93 0.0 0.0 0.00 0.96 0.50 81 1011.3
20260506143941 52 128 0.0 0.0 0.00 0.96 0.50 83 1011.2
20260506143436 52 288 0.0 0.0 0.00 0.96 0.50 82 1011.3
20260506142929 51 40 0.0 0.0 0.00 0.96 0.50 86 1011.2
20260506142424 51 231 0.0 0.0 0.00 0.96 0.50 85 1011.4
20260506141918 51 202 0.0 0.0 0.00 0.96 0.50 87 1011.3
20260506141412 50 295 0.0 0.0 0.00 0.96 0.50 89 1011.3
20260506140905 50 157 0.0 0.0 0.00 0.96 0.50 91 1011.3
20260506140400 50 304 0.0 0.0 0.00 0.96 0.50 91 1011.3
20260506135854 49 211 0.0 0.0 0.00 0.96 0.50 92 1011.1
20260506135348 49 105 0.0 0.0 0.00 0.96 0.50 94 1011.0
20260506134842 49 277 0.0 0.0 0.00 0.96 0.50 94 1011.2
20260506134336 49 140 0.0 0.0 0.00 0.96 0.50 95 1011.2
20260506133831 48 320 0.0 0.0 0.00 0.96 0.50 95 1011.1
20260506133324 48 269 0.0 0.0 0.00 0.96 0.50 95 1011.0
20260506133036 48 277 0.0 0.0 0.00 0.96 0.50 96 1011.0
20260506132311 48 277 0.0 0.0 0.00 0.96 0.50 95 1010.9
20260506131806 47 235 0.0 0.0 0.00 0.96 0.50 95 1010.7
20260506131525 47 219 0.0 0.0 0.00 0.96 0.50 95 1010.9
20260506131018 47 217 0.0 0.0 0.00 0.96 0.50 95 1010.9
20260506130247 47 217 0.0 0.0 0.00 0.96 0.50 96 1010.9
20260506130002 47 219 0.0 0.0 0.00 0.96 0.50 96 1010.7
20260506125236 47 140 0.0 0.0 0.00 0.96 0.50 97 1010.7
20260506124730 47 140 0.0 0.0 0.00 0.96 0.50 96 1010.6
20260506124224 47 209 0.0 0.0 0.00 0.96 0.50 96 1010.5
20260506123717 46 107 0.0 0.0 0.00 0.96 0.50 97 1010.5
20260506123432 46 244 0.0 0.0 0.00 0.96 0.50 97 1010.5
20260506122705 46 275 0.0 0.0 0.00 0.96 0.50 96 1010.5
20260506122159 46 0 0.0 0.0 0.00 0.96 0.50 96 1010.6
20260506121919 46 0 0.0 0.0 0.00 0.96 0.50 97 1010.3
20260506121148 46 0 0.0 0.0 0.00 0.96 0.50 97 1010.1
20260506120641 46 0 0.0 0.0 0.00 0.96 0.50 97 1009.9
20260506120136 46 0 0.0 0.0 0.00 0.96 0.50 97 1010.0
20260506115630 46 0 0.0 0.0 0.00 0.96 0.50 96 1009.9
20260506115341 46 0 0.0 0.0 0.00 0.97 0.50 96 1009.5
20260506114618 46 0 0.0 0.0 0.00 0.97 0.50 96 1009.4
20260506114111 46 0 0.0 0.0 0.00 0.97 0.50 96 1009.1
20260506113605 46 0 0.0 0.0 0.00 0.97 0.50 96 1009.3
20260506113100 46 0 0.0 0.0 0.00 0.97 0.50 96 1009.2
20260506112554 46 0 0.0 0.0 0.00 0.97 0.50 96 1009.1
20260506112048 46 0 0.0 0.0 0.00 0.97 0.50 96 1009.1
20260506111805 46 0 0.0 0.0 0.00 0.97 0.50 96 1009.2
20260506111036 46 0 0.0 0.0 0.00 0.97 0.50 96 1009.2
20260506110530 46 0 0.0 0.0 0.00 0.97 0.50 96 1009.2
20260506110025 46 0 0.0 0.0 0.00 0.98 0.50 96 1009.0
20260506105518 46 0 0.0 0.0 0.00 0.98 0.50 96 1008.6
20260506105011 46 0 0.0 0.0 0.00 0.98 0.50 96 1008.2
20260506104506 46 0 0.0 0.0 0.00 0.98 0.50 96 1008.4
20260506104000 45 0 0.0 0.0 0.00 0.98 0.50 96 1008.7
20260506103454 45 240 0.0 0.0 0.00 0.98 0.50 96 1008.9
20260506102950 46 0 0.0 0.0 0.00 0.99 0.50 96 1008.9
20260506102447 46 0 0.0 0.0 0.00 0.99 0.50 96 1008.6
20260506101947 46 0 0.0 0.0 0.00 1.00 0.50 96 1008.3
20260506101447 46 0 0.0 0.0 0.00 1.00 0.50 96 1008.0
20260506100948 46 215 0.0 0.0 0.00 1.01 0.50 96 1008.0
20260506100447 46 0 0.0 0.0 0.00 1.01 0.50 96 1007.9
20260506095945 45 0 0.0 0.0 0.00 1.01 0.50 96 1008.0
20260506095930 45 0 0.0 0.0 0.00 1.01 0.50 96 1007.9
20260506094945 45 0 0.0 0.0 0.00 1.01 0.50 96 1007.7
20260506094449 45 0 0.0 0.0 0.00 1.01 0.50 96 1007.9
20260506093946 45 0 0.0 0.0 0.00 1.01 0.50 96 1008.1